| time (UTC) | temp F | wind direction | speed knots | gust knots | rain 1hr in | rain 24hr in | rain mn in | humidity % | barometer mb |
| 20260502205813 | 89 | 210 | 0.9 | 0.9 | 0.00 | 0.00 | 0.00 | 15 | 1014.6 |
| 20260502205309 | 90 | 154 | 0.9 | 1.7 | 0.00 | 0.00 | 0.00 | 14 | 1014.7 |
| 20260502204806 | 90 | 235 | 0.9 | 0.9 | 0.00 | 0.00 | 0.00 | 14 | 1014.7 |
| 20260502204303 | 89 | 232 | 0.0 | 0.0 | 0.00 | 0.00 | 0.00 | 15 | 1014.6 |
| 20260502203801 | 89 | 270 | 0.9 | 0.9 | 0.00 | 0.00 | 0.00 | 16 | 1014.7 |
| 20260502203258 | 89 | 254 | 0.9 | 0.9 | 0.00 | 0.00 | 0.00 | 14 | 1014.8 |
| 20260502202758 | 91 | 102 | 2.6 | 2.6 | 0.00 | 0.00 | 0.00 | 11 | 1015.0 |
| 20260502202256 | 91 | 264 | 1.7 | 1.7 | 0.00 | 0.00 | 0.00 | 10 | 1015.0 |
| 20260502201754 | 88 | 242 | 0.9 | 0.9 | 0.00 | 0.00 | 0.00 | 11 | 1015.3 |
| 20260502201254 | 89 | 162 | 2.6 | 2.6 | 0.00 | 0.00 | 0.00 | 12 | 1015.4 |
| 20260502200751 | 90 | 242 | 0.9 | 1.7 | 0.00 | 0.00 | 0.00 | 13 | 1015.3 |
| 20260502200247 | 88 | 139 | 0.9 | 1.7 | 0.00 | 0.00 | 0.00 | 15 | 1015.6 |
| 20260502195746 | 89 | 124 | 1.7 | 1.7 | 0.00 | 0.00 | 0.00 | 16 | 1015.5 |
| 20260502195242 | 88 | 215 | 1.7 | 1.7 | 0.00 | 0.00 | 0.00 | 17 | 1015.7 |
| 20260502194738 | 88 | 122 | 2.6 | 2.6 | 0.00 | 0.00 | 0.00 | 16 | 1015.6 |
| 20260502194236 | 87 | 80 | 2.6 | 4.3 | 0.00 | 0.00 | 0.00 | 17 | 1015.5 |
| 20260502193731 | 88 | 199 | 1.7 | 1.7 | 0.00 | 0.00 | 0.00 | 18 | 1015.6 |
| 20260502193229 | 88 | 158 | 3.5 | 4.3 | 0.00 | 0.00 | 0.00 | 16 | 1015.7 |
| 20260502192729 | 87 | 169 | 4.3 | 5.2 | 0.00 | 0.00 | 0.00 | 17 | 1015.7 |
| 20260502192227 | 88 | 205 | 1.7 | 2.6 | 0.00 | 0.00 | 0.00 | 18 | 1016.0 |
| 20260502191723 | 88 | 138 | 0.9 | 1.7 | 0.00 | 0.00 | 0.00 | 17 | 1015.8 |
| 20260502191221 | 86 | 100 | 2.6 | 2.6 | 0.00 | 0.00 | 0.00 | 18 | 1016.0 |
| 20260502190718 | 87 | 139 | 4.3 | 6.1 | 0.00 | 0.00 | 0.00 | 19 | 1016.1 |
| 20260502190216 | 87 | 212 | 1.7 | 1.7 | 0.00 | 0.00 | 0.00 | 19 | 1016.2 |
| 20260502185715 | 87 | 180 | 3.5 | 7.0 | 0.00 | 0.00 | 0.00 | 19 | 1016.2 |
| 20260502185212 | 87 | 187 | 2.6 | 2.6 | 0.00 | 0.00 | 0.00 | 20 | 1016.1 |
| 20260502184708 | 87 | 185 | 2.6 | 6.1 | 0.00 | 0.00 | 0.00 | 20 | 1016.3 |
| 20260502184204 | 86 | 178 | 1.7 | 1.7 | 0.00 | 0.00 | 0.00 | 21 | 1016.3 |
| 20260502183701 | 86 | 217 | 1.7 | 1.7 | 0.00 | 0.00 | 0.00 | 21 | 1016.6 |
| 20260502183157 | 86 | 184 | 1.7 | 1.7 | 0.00 | 0.00 | 0.00 | 21 | 1016.5 |
| 20260502182652 | 86 | 142 | 1.7 | 1.7 | 0.00 | 0.00 | 0.00 | 21 | 1016.6 |
| 20260502182148 | 86 | 159 | 3.5 | 4.3 | 0.00 | 0.00 | 0.00 | 21 | 1016.6 |
| 20260502181646 | 85 | 108 | 3.5 | 5.2 | 0.00 | 0.00 | 0.00 | 21 | 1016.7 |
| 20260502181145 | 86 | 224 | 2.6 | 2.6 | 0.00 | 0.00 | 0.00 | 21 | 1016.9 |
| 20260502180641 | 86 | 199 | 1.7 | 1.7 | 0.00 | 0.00 | 0.00 | 20 | 1016.8 |
| 20260502180138 | 85 | 182 | 3.5 | 6.1 | 0.00 | 0.00 | 0.00 | 21 | 1016.8 |
| 20260502164049 | 82 | 143 | 6.1 | 9.6 | 0.00 | 0.00 | 0.00 | 18 | 1017.1 |
| 20260502163545 | 82 | 134 | 2.6 | 2.6 | 0.00 | 0.00 | 0.00 | 18 | 1017.0 |
| 20260502163042 | 82 | 197 | 1.7 | 2.6 | 0.00 | 0.00 | 0.00 | 18 | 1017.0 |
| 20260502162539 | 82 | 134 | 1.7 | 1.7 | 0.00 | 0.00 | 0.00 | 18 | 1017.1 |
| 20260502162036 | 82 | 63 | 2.6 | 4.3 | 0.00 | 0.00 | 0.00 | 18 | 1017.0 |
| 20260502161533 | 81 | 122 | 1.7 | 2.6 | 0.00 | 0.00 | 0.00 | 18 | 1016.9 |
| 20260502161031 | 81 | 90 | 3.5 | 4.3 | 0.00 | 0.00 | 0.00 | 18 | 1017.0 |
| 20260502160528 | 81 | 217 | 2.6 | 4.3 | 0.00 | 0.00 | 0.00 | 18 | 1016.7 |
| 20260502151924 | 79 | 162 | 1.7 | 2.6 | 0.00 | 0.00 | 0.00 | 18 | 1016.4 |
| 20260502151420 | 79 | 143 | 1.7 | 1.7 | 0.00 | 0.00 | 0.00 | 18 | 1016.8 |
| 20260502150918 | 78 | 82 | 1.7 | 1.7 | 0.00 | 0.00 | 0.00 | 18 | 1016.4 |
| 20260502150415 | 78 | 188 | 3.5 | 4.3 | 0.00 | 0.00 | 0.00 | 18 | 1016.5 |
| 20260502130301 | 64 | 234 | 0.0 | 0.0 | 0.00 | 0.00 | 0.00 | 26 | 1015.0 |
| 20260502123746 | 64 | 246 | 0.0 | 0.0 | 0.00 | 0.00 | 0.00 | 26 | 1014.7 |
| 20260502123243 | 64 | 237 | 0.0 | 0.0 | 0.00 | 0.00 | 0.00 | 25 | 1014.6 |
| 20260502122740 | 64 | 249 | 0.0 | 0.0 | 0.00 | 0.00 | 0.00 | 25 | 1014.7 |
| 20260502122236 | 63 | 236 | 0.0 | 0.0 | 0.00 | 0.00 | 0.00 | 26 | 1014.6 |
| 20260502121734 | 62 | 244 | 0.0 | 0.0 | 0.00 | 0.00 | 0.00 | 28 | 1014.5 |
| 20260502121232 | 62 | 259 | 0.0 | 0.0 | 0.00 | 0.00 | 0.00 | 27 | 1014.5 |
| 20260502120728 | 63 | 246 | 0.0 | 0.0 | 0.00 | 0.00 | 0.00 | 26 | 1014.2 |
| 20260502120225 | 64 | 246 | 0.0 | 0.0 | 0.00 | 0.00 | 0.00 | 26 | 1014.5 |
| 20260502115723 | 64 | 246 | 0.0 | 0.0 | 0.00 | 0.00 | 0.00 | 26 | 1014.3 |
| 20260502115219 | 65 | 263 | 0.0 | 0.9 | 0.00 | 0.00 | 0.00 | 25 | 1014.4 |
| 20260502114715 | 65 | 281 | 0.0 | 0.9 | 0.00 | 0.00 | 0.00 | 24 | 1014.3 |
| 20260502114213 | 66 | 247 | 0.0 | 0.0 | 0.00 | 0.00 | 0.00 | 25 | 1014.2 |
| 20260502113709 | 66 | 238 | 0.0 | 0.0 | 0.00 | 0.00 | 0.00 | 24 | 1014.3 |
| 20260502113207 | 67 | 235 | 0.0 | 0.0 | 0.00 | 0.00 | 0.00 | 24 | 1014.3 |
| 20260502112705 | 66 | 235 | 0.9 | 0.9 | 0.00 | 0.00 | 0.00 | 24 | 1014.2 |
| 20260502112203 | 66 | 236 | 0.0 | 0.0 | 0.00 | 0.00 | 0.00 | 24 | 1014.1 |
| 20260502111659 | 66 | 234 | 0.0 | 0.0 | 0.00 | 0.00 | 0.00 | 24 | 1014.2 |
| 20260502111157 | 67 | 234 | 0.0 | 0.0 | 0.00 | 0.00 | 0.00 | 24 | 1014.2 |
| 20260502110655 | 67 | 232 | 0.0 | 0.0 | 0.00 | 0.00 | 0.00 | 24 | 1014.1 |
| 20260502110152 | 67 | 231 | 0.0 | 0.9 | 0.00 | 0.00 | 0.00 | 24 | 1014.2 |
| 20260502105649 | 66 | 237 | 0.0 | 0.0 | 0.00 | 0.00 | 0.00 | 25 | 1014.2 |
| 20260502105146 | 66 | 238 | 0.0 | 0.0 | 0.00 | 0.00 | 0.00 | 25 | 1014.2 |
| 20260502104643 | 67 | 235 | 0.0 | 0.0 | 0.00 | 0.00 | 0.00 | 24 | 1014.3 |
| 20260502104141 | 67 | 234 | 0.0 | 0.0 | 0.00 | 0.00 | 0.00 | 24 | 1014.2 |
| 20260502103638 | 67 | 235 | 0.0 | 0.0 | 0.00 | 0.00 | 0.00 | 24 | 1014.3 |
| 20260502103136 | 67 | 237 | 0.0 | 0.0 | 0.00 | 0.00 | 0.00 | 24 | 1014.0 |
| 20260502102633 | 68 | 235 | 0.0 | 0.0 | 0.00 | 0.00 | 0.00 | 23 | 1014.3 |
| 20260502102129 | 68 | 235 | 0.0 | 0.0 | 0.00 | 0.00 | 0.00 | 23 | 1014.2 |
| 20260502101627 | 68 | 229 | 0.0 | 0.0 | 0.00 | 0.00 | 0.00 | 23 | 1014.0 |
| 20260502101126 | 69 | 168 | 1.7 | 1.7 | 0.00 | 0.00 | 0.00 | 22 | 1014.0 |
| 20260502100624 | 70 | 356 | 0.9 | 1.7 | 0.00 | 0.00 | 0.00 | 22 | 1014.1 |
| 20260502100122 | 70 | 21 | 0.0 | 0.9 | 0.00 | 0.00 | 0.00 | 22 | 1014.0 |
| 20260502091055 | 75 | 41 | 2.6 | 4.3 | 0.00 | 0.00 | 0.00 | 19 | 1013.6 |
| 20260502090552 | 75 | 17 | 3.5 | 5.2 | 0.00 | 0.00 | 0.00 | 18 | 1013.6 |
| 20260502071447 | 74 | 236 | 0.0 | 0.9 | 0.00 | 0.00 | 0.00 | 16 | 1013.5 |
| 20260502070945 | 75 | 308 | 0.9 | 0.9 | 0.00 | 0.00 | 0.00 | 16 | 1013.6 |
| 20260502070443 | 73 | 268 | 0.9 | 0.9 | 0.00 | 0.00 | 0.00 | 16 | 1013.4 |
| 20260502065941 | 74 | 254 | 0.0 | 0.0 | 0.00 | 0.00 | 0.00 | 16 | 1013.7 |
| 20260502065439 | 73 | 271 | 0.0 | 0.9 | 0.00 | 0.00 | 0.00 | 16 | 1013.5 |
| 20260502064937 | 73 | 290 | 0.9 | 1.7 | 0.00 | 0.00 | 0.00 | 15 | 1013.6 |
| 20260502064434 | 73 | 302 | 0.9 | 1.7 | 0.00 | 0.00 | 0.00 | 15 | 1013.4 |
| 20260502063931 | 75 | 260 | 0.9 | 0.9 | 0.00 | 0.00 | 0.00 | 15 | 1013.4 |
| 20260502063429 | 74 | 28 | 0.9 | 0.9 | 0.00 | 0.00 | 0.00 | 15 | 1013.4 |
| 20260502062927 | 75 | 283 | 0.9 | 0.9 | 0.00 | 0.00 | 0.00 | 14 | 1013.3 |
| 20260502062424 | 75 | 246 | 0.0 | 0.9 | 0.00 | 0.00 | 0.00 | 14 | 1013.4 |
| 20260502061923 | 75 | 47 | 0.9 | 0.9 | 0.00 | 0.00 | 0.00 | 14 | 1013.3 |
| 20260502061420 | 75 | 249 | 0.0 | 0.0 | 0.00 | 0.00 | 0.00 | 14 | 1012.9 |
| 20260502060916 | 75 | 239 | 0.0 | 0.0 | 0.00 | 0.00 | 0.00 | 14 | 1013.3 |
| 20260502060410 | 75 | 268 | 1.7 | 1.7 | 0.00 | 0.00 | 0.00 | 14 | 1013.2 |
| 20260502055908 | 75 | 329 | 0.9 | 1.7 | 0.00 | 0.00 | 0.00 | 14 | 1012.8 |
| 20260502055405 | 75 | 255 | 1.7 | 2.6 | 0.00 | 0.00 | 0.00 | 14 | 1012.6 |
| 20260502054900 | 76 | 298 | 1.7 | 1.7 | 0.00 | 0.00 | 0.00 | 13 | 1012.7 |
| 20260502054357 | 77 | 335 | 0.9 | 0.9 | 0.00 | 0.00 | 0.00 | 13 | 1012.7 |
| 20260502053854 | 77 | 248 | 0.9 | 0.9 | 0.00 | 0.00 | 0.00 | 13 | 1012.9 |
| 20260502053352 | 78 | 240 | 0.9 | 0.9 | 0.00 | 0.00 | 0.00 | 13 | 1012.6 |
| 20260502052849 | 78 | 240 | 0.9 | 0.9 | 0.00 | 0.00 | 0.00 | 13 | 1012.5 |
| 20260502052347 | 78 | 228 | 1.7 | 1.7 | 0.00 | 0.00 | 0.00 | 13 | 1012.7 |
| 20260502051844 | 78 | 229 | 0.9 | 0.9 | 0.00 | 0.00 | 0.00 | 13 | 1012.6 |
| 20260502051343 | 79 | 255 | 0.9 | 0.9 | 0.00 | 0.00 | 0.00 | 14 | 1012.4 |
| 20260502050839 | 80 | 252 | 0.9 | 1.7 | 0.00 | 0.00 | 0.00 | 14 | 1012.6 |
| 20260502050336 | 80 | 243 | 1.7 | 1.7 | 0.00 | 0.00 | 0.00 | 13 | 1012.6 |
| 20260502045833 | 81 | 256 | 0.9 | 0.9 | 0.00 | 0.00 | 0.00 | 13 | 1012.5 |
| 20260502045329 | 80 | 258 | 0.9 | 1.7 | 0.00 | 0.00 | 0.00 | 13 | 1012.5 |
| 20260502044827 | 79 | 243 | 1.7 | 1.7 | 0.00 | 0.00 | 0.00 | 15 | 1012.4 |
| 20260502044323 | 78 | 261 | 0.9 | 0.9 | 0.00 | 0.00 | 0.00 | 16 | 1012.4 |
| 20260502043820 | 77 | 249 | 0.0 | 0.9 | 0.00 | 0.00 | 0.00 | 17 | 1012.3 |
| 20260502043318 | 76 | 229 | 0.0 | 0.0 | 0.00 | 0.00 | 0.00 | 18 | 1012.5 |
| 20260502042817 | 74 | 262 | 0.9 | 0.9 | 0.00 | 0.00 | 0.00 | 19 | 1012.5 |
| 20260502042315 | 73 | 227 | 0.0 | 0.0 | 0.00 | 0.00 | 0.00 | 20 | 1012.1 |
| 20260502041812 | 74 | 226 | 0.0 | 0.0 | 0.00 | 0.00 | 0.00 | 20 | 1012.1 |
| 20260502041309 | 74 | 226 | 0.0 | 0.0 | 0.00 | 0.00 | 0.00 | 20 | 1012.2 |
| 20260502040806 | 74 | 226 | 0.0 | 0.0 | 0.00 | 0.00 | 0.00 | 20 | 1012.0 |
| 20260502040303 | 74 | 226 | 0.0 | 0.0 | 0.00 | 0.00 | 0.00 | 20 | 1012.2 |
| 20260502035759 | 74 | 226 | 0.0 | 0.0 | 0.00 | 0.00 | 0.00 | 20 | 1011.9 |
| 20260502035256 | 75 | 226 | 0.0 | 0.0 | 0.00 | 0.00 | 0.00 | 20 | 1011.9 |
| 20260502034753 | 75 | 225 | 0.0 | 0.0 | 0.00 | 0.00 | 0.00 | 20 | 1011.8 |
| 20260502034251 | 75 | 225 | 0.0 | 0.0 | 0.00 | 0.00 | 0.00 | 20 | 1011.8 |
| 20260502033749 | 76 | 225 | 0.0 | 0.0 | 0.00 | 0.00 | 0.00 | 19 | 1011.7 |
| 20260502033247 | 76 | 225 | 0.0 | 0.0 | 0.00 | 0.00 | 0.00 | 19 | 1011.8 |
| 20260502032743 | 77 | 240 | 0.0 | 0.0 | 0.00 | 0.00 | 0.00 | 18 | 1011.6 |
| 20260502032239 | 78 | 240 | 0.0 | 0.0 | 0.00 | 0.00 | 0.00 | 18 | 1011.6 |
| 20260502031738 | 79 | 239 | 0.0 | 0.0 | 0.00 | 0.00 | 0.00 | 17 | 1011.4 |
| 20260502031235 | 80 | 240 | 0.0 | 0.0 | 0.00 | 0.00 | 0.00 | 17 | 1011.3 |
| 20260502030734 | 80 | 245 | 0.9 | 0.9 | 0.00 | 0.00 | 0.00 | 17 | 1011.1 |
| 20260502030231 | 80 | 225 | 0.9 | 0.9 | 0.00 | 0.00 | 0.00 | 18 | 1011.4 |
| 20260502025728 | 80 | 233 | 0.0 | 0.0 | 0.00 | 0.00 | 0.00 | 17 | 1011.2 |
| 20260502025226 | 80 | 238 | 0.0 | 0.0 | 0.00 | 0.00 | 0.00 | 18 | 1011.2 |
| 20260502024724 | 81 | 238 | 0.0 | 0.0 | 0.00 | 0.00 | 0.00 | 17 | 1011.1 |
| 20260502024221 | 82 | 234 | 0.0 | 0.0 | 0.00 | 0.00 | 0.00 | 17 | 1011.0 |
| 20260502023719 | 82 | 218 | 0.0 | 0.0 | 0.00 | 0.00 | 0.00 | 17 | 1011.3 |
| 20260502023216 | 83 | 238 | 0.0 | 0.9 | 0.00 | 0.00 | 0.00 | 17 | 1010.8 |
| 20260502022714 | 83 | 230 | 0.0 | 0.0 | 0.00 | 0.00 | 0.00 | 16 | 1011.0 |
| 20260502022210 | 83 | 227 | 0.0 | 0.0 | 0.00 | 0.00 | 0.00 | 16 | 1010.8 |
| 20260502021708 | 84 | 228 | 0.9 | 0.9 | 0.00 | 0.00 | 0.00 | 16 | 1010.7 |
| 20260502021205 | 84 | 238 | 0.9 | 0.9 | 0.00 | 0.00 | 0.00 | 16 | 1011.1 |
| 20260502020702 | 84 | 236 | 0.9 | 1.7 | 0.00 | 0.00 | 0.00 | 15 | 1010.7 |
| 20260502020159 | 85 | 250 | 0.9 | 1.7 | 0.00 | 0.00 | 0.00 | 15 | 1010.5 |
| 20260502015657 | 85 | 219 | 0.9 | 1.7 | 0.00 | 0.00 | 0.00 | 15 | 1010.8 |
| 20260502015152 | 85 | 196 | 2.6 | 4.3 | 0.00 | 0.00 | 0.00 | 15 | 1010.4 |
| 20260502014650 | 85 | 235 | 2.6 | 5.2 | 0.00 | 0.00 | 0.00 | 15 | 1010.4 |
| 20260502014147 | 86 | 225 | 0.9 | 0.9 | 0.00 | 0.00 | 0.00 | 15 | 1010.4 |
| 20260502013643 | 86 | 202 | 0.9 | 0.9 | 0.00 | 0.00 | 0.00 | 14 | 1010.5 |
| 20260502013138 | 86 | 187 | 1.7 | 2.6 | 0.00 | 0.00 | 0.00 | 14 | 1010.3 |
| 20260502012636 | 87 | 238 | 0.9 | 1.7 | 0.00 | 0.00 | 0.00 | 14 | 1010.4 |
| 20260502012134 | 87 | 202 | 2.6 | 2.6 | 0.00 | 0.00 | 0.00 | 13 | 1010.3 |
| 20260502011631 | 88 | 231 | 1.7 | 2.6 | 0.00 | 0.00 | 0.00 | 13 | 1010.2 |
| 20260502011126 | 88 | 238 | 0.9 | 0.9 | 0.00 | 0.00 | 0.00 | 13 | 1010.4 |
| 20260502010624 | 88 | 235 | 2.6 | 2.6 | 0.00 | 0.00 | 0.00 | 12 | 1010.0 |
| 20260502010120 | 88 | 241 | 0.9 | 0.9 | 0.00 | 0.00 | 0.00 | 13 | 1010.4 |
| 20260502005618 | 88 | 239 | 0.9 | 0.9 | 0.00 | 0.00 | 0.00 | 13 | 1010.4 |
| 20260502005115 | 87 | 197 | 2.6 | 4.3 | 0.00 | 0.00 | 0.00 | 13 | 1010.5 |
| 20260502004611 | 87 | 171 | 3.5 | 5.2 | 0.00 | 0.00 | 0.00 | 13 | 1010.5 |
| 20260502004108 | 87 | 166 | 2.6 | 4.3 | 0.00 | 0.00 | 0.00 | 13 | 1010.3 |
| 20260502003606 | 88 | 216 | 3.5 | 5.2 | 0.00 | 0.00 | 0.00 | 13 | 1010.5 |
| 20260502003103 | 87 | 197 | 2.6 | 2.6 | 0.00 | 0.00 | 0.00 | 14 | 1010.6 |
| 20260502002559 | 88 | 212 | 0.9 | 1.7 | 0.00 | 0.00 | 0.00 | 14 | 1010.3 |
| 20260502002056 | 88 | 200 | 2.6 | 2.6 | 0.00 | 0.00 | 0.00 | 14 | 1010.4 |
| 20260502001554 | 88 | 241 | 0.9 | 0.9 | 0.00 | 0.00 | 0.00 | 14 | 1010.4 |
| 20260502001051 | 89 | 200 | 2.6 | 2.6 | 0.00 | 0.00 | 0.00 | 14 | 1010.6 |
| 20260502000549 | 88 | 183 | 1.7 | 1.7 | 0.00 | 0.00 | 0.00 | 14 | 1010.5 |
| 20260502000046 | 87 | 225 | 3.5 | 5.2 | 0.00 | 0.00 | 0.00 | 15 | 1010.6 |
| 20260501235542 | 88 | 206 | 3.5 | 5.2 | 0.00 | 0.00 | 0.00 | 15 | 1010.7 |
| 20260501235038 | 89 | 245 | 0.9 | 0.9 | 0.00 | 0.00 | 0.00 | 14 | 1011.0 |
| 20260501234534 | 88 | 211 | 2.6 | 2.6 | 0.00 | 0.00 | 0.00 | 14 | 1010.7 |
| 20260501234032 | 89 | 204 | 3.5 | 5.2 | 0.00 | 0.00 | 0.00 | 15 | 1010.6 |
| 20260501233530 | 88 | 215 | 1.7 | 1.7 | 0.00 | 0.00 | 0.00 | 14 | 1010.8 |
| 20260501233026 | 88 | 170 | 4.3 | 5.2 | 0.00 | 0.00 | 0.00 | 15 | 1011.1 |
| 20260501232522 | 88 | 210 | 2.6 | 6.1 | 0.00 | 0.00 | 0.00 | 15 | 1011.0 |
| 20260501232020 | 88 | 199 | 4.3 | 6.1 | 0.00 | 0.00 | 0.00 | 15 | 1010.8 |
| 20260501231518 | 87 | 208 | 1.7 | 1.7 | 0.00 | 0.00 | 0.00 | 15 | 1010.8 |
| 20260501231016 | 89 | 217 | 2.6 | 4.3 | 0.00 | 0.00 | 0.00 | 15 | 1011.2 |
| 20260501230515 | 88 | 249 | 0.0 | 0.9 | 0.00 | 0.00 | 0.00 | 16 | 1011.1 |
| 20260501230012 | 89 | 186 | 2.6 | 2.6 | 0.00 | 0.00 | 0.00 | 15 | 1011.3 |
| 20260501225510 | 89 | 264 | 1.7 | 2.6 | 0.00 | 0.00 | 0.00 | 15 | 1011.3 |
| 20260501225005 | 89 | 225 | 0.9 | 1.7 | 0.00 | 0.00 | 0.00 | 15 | 1011.3 |
| 20260501224503 | 88 | 183 | 0.9 | 1.7 | 0.00 | 0.00 | 0.00 | 15 | 1011.4 |
| 20260501224000 | 89 | 260 | 0.9 | 0.9 | 0.00 | 0.00 | 0.00 | 15 | 1011.5 |
| 20260501223456 | 89 | 245 | 0.0 | 0.0 | 0.00 | 0.00 | 0.00 | 16 | 1011.6 |
| 20260501222951 | 89 | 238 | 1.7 | 1.7 | 0.00 | 0.00 | 0.00 | 15 | 1011.2 |
| 20260501222449 | 89 | 236 | 0.0 | 0.9 | 0.00 | 0.00 | 0.00 | 16 | 1011.6 |
| 20260501221944 | 89 | 237 | 0.9 | 0.9 | 0.00 | 0.00 | 0.00 | 16 | 1011.8 |
| 20260501221442 | 90 | 244 | 0.9 | 0.9 | 0.00 | 0.00 | 0.00 | 16 | 1011.8 |
| 20260501220940 | 89 | 243 | 1.7 | 1.7 | 0.00 | 0.00 | 0.00 | 15 | 1011.8 |
| 20260501220437 | 89 | 301 | 0.9 | 1.7 | 0.00 | 0.00 | 0.00 | 15 | 1012.0 |
| 20260501215933 | 88 | 236 | 0.0 | 0.9 | 0.00 | 0.00 | 0.00 | 15 | 1012.0 |
| 20260501215430 | 88 | 321 | 5.2 | 6.1 | 0.00 | 0.00 | 0.00 | 15 | 1012.2 |
| 20260501214926 | 89 | 202 | 0.9 | 1.7 | 0.00 | 0.00 | 0.00 | 15 | 1012.1 |
| 20260501214421 | 88 | 337 | 1.7 | 2.6 | 0.00 | 0.00 | 0.00 | 15 | 1012.1 |
| 20260501213917 | 89 | 254 | 0.9 | 0.9 | 0.00 | 0.00 | 0.00 | 15 | 1012.3 |
| 20260501213414 | 89 | 283 | 0.9 | 1.7 | 0.00 | 0.00 | 0.00 | 15 | 1012.4 |
| 20260501212909 | 89 | 250 | 0.9 | 0.9 | 0.00 | 0.00 | 0.00 | 16 | 1012.6 |
| 20260501212406 | 87 | 211 | 0.9 | 1.7 | 0.00 | 0.00 | 0.00 | 17 | 1012.8 |
| 20260501211903 | 85 | 175 | 3.5 | 5.2 | 0.00 | 0.00 | 0.00 | 18 | 1012.5 |
| 20260501211400 | 86 | 207 | 2.6 | 2.6 | 0.00 | 0.00 | 0.00 | 18 | 1012.7 |
| 20260501210857 | 87 | 198 | 4.3 | 5.2 | 0.00 | 0.00 | 0.00 | 18 | 1012.7 |
| 20260501210349 | 87 | 219 | 0.9 | 1.7 | 0.00 | 0.00 | 0.00 | 18 | 1012.6 |